Time,TemperatureF,DewpointF,PressureIn,WindDirection,WindDirectionDegrees,WindSpeedMPH,WindSpeedGustMPH,Humidity,HourlyPrecipIn,Conditions,Clouds,dailyrainin,SolarRadiationWatts/m^2,SoftwareType,DateUTC
2013-08-25 00:00:00,68.9,66.2,30.08,NNW,341,0.0,0.0,91,0.00,,,0.00,0,Wunderground v.1.15,2013-08-25 10:00:00,
2013-08-25 00:10:00,68.6,66.2,30.08,NNW,341,0.0,0.0,92,0.00,,,0.00,0,Wunderground v.1.15,2013-08-25 10:10:00,
2013-08-25 00:20:00,68.9,66.2,30.07,NNW,336,2.0,2.0,91,0.00,,,0.00,0,Wunderground v.1.15,2013-08-25 10:20:00,
2013-08-25 00:25:00,68.7,66.0,30.07,NNW,336,1.0,2.0,91,0.00,,,0.00,0,Wunderground v.1.15,2013-08-25 10:25:00,
2013-08-25 00:30:00,68.7,66.0,30.07,NNW,336,0.0,4.0,91,0.00,,,0.00,0,Wunderground v.1.15,2013-08-25 10:30:00,
2013-08-25 00:35:00,68.9,65.8,30.07,NNW,336,1.0,4.0,90,0.00,,,0.00,0,Wunderground v.1.15,2013-08-25 10:35:00,
2013-08-25 00:40:00,68.7,65.6,30.07,NNW,336,2.0,2.0,90,0.00,,,0.00,0,Wunderground v.1.15,2013-08-25 10:40:00,
2013-08-25 00:45:00,68.3,65.6,30.07,NNW,336,2.0,3.0,91,0.00,,,0.00,0,Wunderground v.1.15,2013-08-25 10:45:00,
2013-08-25 00:50:00,68.1,65.4,30.07,NNW,336,3.0,3.0,91,0.00,,,0.00,0,Wunderground v.1.15,2013-08-25 10:50:00,
2013-08-25 00:55:00,68.1,65.4,30.07,NNW,336,2.0,3.0,91,0.00,,,0.00,0,Wunderground v.1.15,2013-08-25 10:55:00,
2013-08-25 01:00:00,68.2,65.2,30.06,NNW,336,0.0,1.0,90,0.00,,,0.00,0,Wunderground v.1.15,2013-08-25 11:00:00,
2013-08-25 01:10:00,68.0,65.3,30.06,NNW,336,0.0,4.0,91,0.00,,,0.00,0,Wunderground v.1.15,2013-08-25 11:10:00,
2013-08-25 01:15:00,68.0,65.0,30.06,NNW,336,2.0,4.0,90,0.00,,,0.00,0,Wunderground v.1.15,2013-08-25 11:15:00,
2013-08-25 01:20:00,67.7,64.7,30.06,NNW,348,3.0,3.0,90,0.00,,,0.00,0,Wunderground v.1.15,2013-08-25 11:20:00,
2013-08-25 01:30:00,67.3,64.6,30.05,NNW,348,0.0,0.0,91,0.00,,,0.00,0,Wunderground v.1.15,2013-08-25 11:30:00,
2013-08-25 01:35:00,67.1,64.7,30.05,NNW,348,0.0,0.0,92,0.00,,,0.00,0,Wunderground v.1.15,2013-08-25 11:35:00,
2013-08-25 01:40:00,66.9,64.5,30.05,NNW,348,0.0,0.0,92,0.00,,,0.00,0,Wunderground v.1.15,2013-08-25 11:40:00,
2013-08-25 01:45:00,66.8,64.7,30.05,NNW,348,0.0,0.0,93,0.00,,,0.00,0,Wunderground v.1.15,2013-08-25 11:45:00,
2013-08-25 01:50:00,66.9,64.5,30.05,NNW,348,1.0,3.0,92,0.00,,,0.00,0,Wunderground v.1.15,2013-08-25 11:50:00,
2013-08-25 02:00:00,66.8,64.4,30.05,NNW,348,1.0,1.0,92,0.00,,,0.00,0,Wunderground v.1.15,2013-08-25 12:00:00,
2013-08-25 02:10:00,66.6,64.5,30.04,NNW,348,1.0,3.0,93,0.00,,,0.00,0,Wunderground v.1.15,2013-08-25 12:10:00,
2013-08-25 02:20:00,66.6,64.2,30.04,NNW,348,3.0,4.0,92,0.00,,,0.00,0,Wunderground v.1.15,2013-08-25 12:20:00,
2013-08-25 02:25:00,66.6,64.2,30.04,NNW,348,3.0,4.0,92,0.00,,,0.00,0,Wunderground v.1.15,2013-08-25 12:25:00,
2013-08-25 02:30:00,66.8,64.1,30.04,NNW,348,3.0,3.0,91,0.00,,,0.00,0,Wunderground v.1.15,2013-08-25 12:30:00,
2013-08-25 02:35:00,66.8,64.1,30.04,NNW,348,2.0,3.0,91,0.00,,,0.00,0,Wunderground v.1.15,2013-08-25 12:35:00,
2013-08-25 02:40:00,66.5,64.1,30.04,NNW,348,1.0,1.0,92,0.00,,,0.00,0,Wunderground v.1.15,2013-08-25 12:40:00,
2013-08-25 02:45:00,66.5,64.1,30.03,NNW,348,0.0,1.0,92,0.00,,,0.00,0,Wunderground v.1.15,2013-08-25 12:45:00,
2013-08-25 02:50:00,66.6,64.2,30.04,NNW,348,0.0,0.0,92,0.00,,,0.00,0,Wunderground v.1.15,2013-08-25 12:50:00,
2013-08-25 02:55:00,66.7,64.0,30.03,NNW,344,1.0,4.0,91,0.00,,,0.00,0,Wunderground v.1.15,2013-08-25 12:55:00,
2013-08-25 03:00:00,67.1,64.1,30.03,NNW,344,3.0,3.0,90,0.00,,,0.00,0,Wunderground v.1.15,2013-08-25 13:00:00,
2013-08-25 03:10:00,67.3,64.3,30.03,NNW,344,2.0,4.0,90,0.00,,,0.00,0,Wunderground v.1.15,2013-08-25 13:10:00,
2013-08-25 03:20:00,67.6,64.2,30.03,NNW,344,3.0,3.0,89,0.00,,,0.00,0,Wunderground v.1.15,2013-08-25 13:20:00,
2013-08-25 03:25:00,68.1,64.4,30.03,NNW,344,3.0,3.0,88,0.00,,,0.00,0,Wunderground v.1.15,2013-08-25 13:25:00,
2013-08-25 03:30:00,68.0,64.3,30.03,NNW,343,3.0,3.0,88,0.00,,,0.00,0,Wunderground v.1.15,2013-08-25 13:30:00,
2013-08-25 03:35:00,68.1,64.4,30.03,NNW,342,2.0,3.0,88,0.00,,,0.00,0,Wunderground v.1.15,2013-08-25 13:35:00,
2013-08-25 03:40:00,68.4,64.7,30.03,NNW,343,1.0,1.0,88,0.00,,,0.00,0,Wunderground v.1.15,2013-08-25 13:40:00,
2013-08-25 03:50:00,68.4,64.7,30.03,NNW,344,0.0,2.0,88,0.00,,,0.00,0,Wunderground v.1.15,2013-08-25 13:50:00,
2013-08-25 03:55:00,68.5,64.8,30.03,NNW,344,1.0,2.0,88,0.00,,,0.00,0,Wunderground v.1.15,2013-08-25 13:55:00,
2013-08-25 04:00:00,68.6,64.9,30.03,NNW,344,1.0,1.0,88,0.00,,,0.00,0,Wunderground v.1.15,2013-08-25 14:00:00,
2013-08-25 04:10:00,68.4,64.7,30.03,NW,321,0.0,0.0,88,0.00,,,0.00,0,Wunderground v.1.15,2013-08-25 14:10:00,
2013-08-25 04:15:00,68.0,64.6,30.03,NW,321,0.0,1.0,89,0.00,,,0.00,0,Wunderground v.1.15,2013-08-25 14:15:00,
2013-08-25 04:20:00,67.7,64.7,30.03,NW,321,0.0,0.0,90,0.00,,,0.00,0,Wunderground v.1.15,2013-08-25 14:20:00,
2013-08-25 04:25:00,67.8,64.8,30.02,NW,321,0.0,0.0,90,0.00,,,0.00,0,Wunderground v.1.15,2013-08-25 14:25:00,
2013-08-25 04:35:00,68.7,65.3,30.03,NW,321,1.0,2.0,89,0.00,,,0.00,0,Wunderground v.1.15,2013-08-25 14:35:00,
2013-08-25 04:40:00,68.4,65.0,30.03,NW,321,3.0,3.0,89,0.00,,,0.00,0,Wunderground v.1.15,2013-08-25 14:40:00,
2013-08-25 04:45:00,68.7,65.6,30.03,NW,312,3.0,3.0,90,0.00,,,0.00,0,Wunderground v.1.15,2013-08-25 14:45:00,
2013-08-25 04:50:00,68.8,65.4,30.03,NW,315,4.0,4.0,89,0.00,,,0.00,0,Wunderground v.1.15,2013-08-25 14:50:00,
2013-08-25 04:55:00,69.1,66.0,30.03,NW,315,2.0,4.0,90,0.00,,,0.00,0,Wunderground v.1.15,2013-08-25 14:55:00,
2013-08-25 05:00:00,69.1,65.7,30.03,NW,315,2.0,3.0,89,0.00,,,0.00,0,Wunderground v.1.15,2013-08-25 15:00:00,
2013-08-25 05:10:00,68.9,65.8,30.03,NW,315,2.0,2.0,90,0.00,,,0.00,0,Wunderground v.1.15,2013-08-25 15:10:00,
2013-08-25 05:15:00,69.0,65.9,30.03,NW,315,1.0,2.0,90,0.00,,,0.00,0,Wunderground v.1.15,2013-08-25 15:15:00,
2013-08-25 05:20:00,68.9,65.5,30.03,NW,315,1.0,1.0,89,0.00,,,0.00,0,Wunderground v.1.15,2013-08-25 15:20:00,
2013-08-25 05:25:00,68.8,66.1,30.03,NW,312,1.0,1.0,91,0.00,,,0.00,0,Wunderground v.1.15,2013-08-25 15:25:00,
2013-08-25 05:35:00,69.1,66.0,30.03,NW,312,1.0,1.0,90,0.00,,,0.00,0,Wunderground v.1.15,2013-08-25 15:35:00,
2013-08-25 05:40:00,69.3,65.9,30.03,NW,317,1.0,6.0,89,0.00,,,0.00,0,Wunderground v.1.15,2013-08-25 15:40:00,
2013-08-25 05:45:00,69.3,65.9,30.03,NW,319,3.0,6.0,89,0.00,,,0.00,0,Wunderground v.1.15,2013-08-25 15:45:00,
2013-08-25 05:50:00,69.6,66.2,30.03,WNW,294,4.0,5.0,89,0.00,,,0.00,0,Wunderground v.1.15,2013-08-25 15:50:00,
2013-08-25 05:55:00,70.5,66.4,30.03,NW,309,5.0,5.0,87,0.00,,,0.00,0,Wunderground v.1.15,2013-08-25 15:55:00,
2013-08-25 06:00:00,70.7,66.3,30.03,NW,308,3.0,3.0,86,0.00,,,0.00,0,Wunderground v.1.15,2013-08-25 16:00:00,
2013-08-25 06:10:00,70.5,66.4,30.03,NW,314,1.0,1.0,87,0.00,,,0.00,5,Wunderground v.1.15,2013-08-25 16:10:00,
2013-08-25 06:15:00,70.2,66.1,30.03,NW,315,1.0,3.0,87,0.00,,,0.00,11,Wunderground v.1.15,2013-08-25 16:15:00,
2013-08-25 06:20:00,69.8,66.1,30.03,NW,315,1.0,1.0,88,0.00,,,0.00,12,Wunderground v.1.15,2013-08-25 16:20:00,
2013-08-25 06:25:00,69.6,65.9,30.04,NW,315,0.0,1.0,88,0.00,,,0.00,14,Wunderground v.1.15,2013-08-25 16:25:00,
2013-08-25 06:30:00,69.4,66.0,30.04,NW,315,1.0,5.0,89,0.00,,,0.00,19,Wunderground v.1.15,2013-08-25 16:30:00,
2013-08-25 06:40:00,69.9,66.8,30.04,NW,314,2.0,4.0,90,0.00,,,0.00,46,Wunderground v.1.15,2013-08-25 16:40:00,
2013-08-25 06:45:00,70.8,67.1,30.04,NW,314,2.0,4.0,88,0.00,,,0.00,62,Wunderground v.1.15,2013-08-25 16:45:00,
2013-08-25 06:50:00,71.2,67.5,30.05,NW,314,1.0,1.0,88,0.00,,,0.00,76,Wunderground v.1.15,2013-08-25 16:50:00,
2013-08-25 06:55:00,71.2,67.8,30.04,NW,314,0.0,1.0,89,0.00,,,0.00,100,Wunderground v.1.15,2013-08-25 16:55:00,
2013-08-25 07:00:00,71.6,68.2,30.05,NW,314,0.0,0.0,89,0.00,,,0.00,121,Wunderground v.1.15,2013-08-25 17:00:00,
2013-08-25 07:10:00,72.6,68.8,30.05,NW,314,0.0,0.0,88,0.00,,,0.00,155,Wunderground v.1.15,2013-08-25 17:10:00,
2013-08-25 07:20:00,73.6,69.8,30.05,NW,314,0.0,0.0,88,0.00,,,0.00,206,Wunderground v.1.15,2013-08-25 17:20:00,
2013-08-25 07:25:00,74.5,70.7,30.06,NW,314,0.0,0.0,88,0.00,,,0.00,218,Wunderground v.1.15,2013-08-25 17:25:00,
2013-08-25 07:30:00,75.0,70.9,30.06,NW,314,0.0,0.0,87,0.00,,,0.00,251,Wunderground v.1.15,2013-08-25 17:30:00,
2013-08-25 07:35:00,75.7,70.9,30.06,NW,314,0.0,0.0,85,0.00,,,0.00,246,Wunderground v.1.15,2013-08-25 17:35:00,
2013-08-25 07:40:00,76.5,70.9,30.06,NW,314,0.0,0.0,83,0.00,,,0.00,269,Wunderground v.1.15,2013-08-25 17:40:00,
2013-08-25 07:45:00,77.0,69.6,30.06,NW,314,0.0,0.0,78,0.00,,,0.00,294,Wunderground v.1.15,2013-08-25 17:45:00,
2013-08-25 07:50:00,77.2,69.8,30.06,WSW,258,0.0,3.0,78,0.00,,,0.00,327,Wunderground v.1.15,2013-08-25 17:50:00,
2013-08-25 07:55:00,77.5,70.1,30.07,SW,229,1.0,3.0,78,0.00,,,0.00,362,Wunderground v.1.15,2013-08-25 17:55:00,
2013-08-25 08:00:00,77.7,69.9,30.06,SW,229,1.0,1.0,77,0.00,,,0.00,373,Wunderground v.1.15,2013-08-25 18:00:00,
2013-08-25 08:10:00,78.1,70.7,30.06,NW,325,3.0,4.0,78,0.00,,,0.00,413,Wunderground v.1.15,2013-08-25 18:10:00,
2013-08-25 08:20:00,79.1,72.0,30.06,ENE,71,2.0,2.0,79,0.00,,,0.00,550,Wunderground v.1.15,2013-08-25 18:20:00,
2013-08-25 08:25:00,79.7,72.2,30.07,East,85,2.0,4.0,78,0.00,,,0.00,527,Wunderground v.1.15,2013-08-25 18:25:00,
2013-08-25 08:35:00,79.8,72.3,30.07,East,100,6.0,12.0,78,0.00,,,0.00,561,Wunderground v.1.15,2013-08-25 18:35:00,
2013-08-25 08:40:00,80.0,72.1,30.06,SSE,166,6.0,9.0,77,0.00,,,0.00,568,Wunderground v.1.15,2013-08-25 18:40:00,
2013-08-25 08:45:00,80.3,72.4,30.07,SE,140,6.0,9.0,77,0.00,,,0.00,708,Wunderground v.1.15,2013-08-25 18:45:00,
2013-08-25 08:50:00,80.7,72.4,30.06,ESE,119,7.0,7.0,76,0.00,,,0.00,650,Wunderground v.1.15,2013-08-25 18:50:00,
2013-08-25 08:55:00,81.0,72.3,30.06,SE,140,8.0,16.0,75,0.00,,,0.00,635,Wunderground v.1.15,2013-08-25 18:55:00,
2013-08-25 09:00:00,81.1,72.0,30.07,SE,126,10.0,13.0,74,0.00,,,0.00,642,Wunderground v.1.15,2013-08-25 19:00:00,
2013-08-25 09:10:00,81.5,72.4,30.07,SE,140,9.0,9.0,74,0.00,,,0.00,735,Wunderground v.1.15,2013-08-25 19:10:00,
2013-08-25 09:15:00,81.5,72.4,30.07,SE,126,9.0,9.0,74,0.00,,,0.00,666,Wunderground v.1.15,2013-08-25 19:15:00,
2013-08-25 09:20:00,81.7,72.6,30.07,East,89,9.0,9.0,74,0.00,,,0.00,664,Wunderground v.1.15,2013-08-25 19:20:00,
2013-08-25 09:25:00,81.7,72.2,30.07,SE,140,10.0,20.0,73,0.00,,,0.00,141,Wunderground v.1.15,2013-08-25 19:25:00,
2013-08-25 09:35:00,81.1,73.2,30.06,SE,126,11.0,11.0,77,0.00,,,0.00,819,Wunderground v.1.15,2013-08-25 19:35:00,
2013-08-25 09:40:00,81.2,73.7,30.06,SE,135,10.0,10.0,78,0.00,,,0.00,819,Wunderground v.1.15,2013-08-25 19:40:00,
2013-08-25 09:45:00,81.9,74.4,30.06,SE,139,8.0,10.0,78,0.00,,,0.00,830,Wunderground v.1.15,2013-08-25 19:45:00,
2013-08-25 09:55:00,82.1,74.6,30.07,East,90,9.0,10.0,78,0.00,,,0.00,810,Wunderground v.1.15,2013-08-25 19:55:00,
2013-08-25 10:00:00,81.8,74.3,30.06,ESE,103,10.0,10.0,78,0.00,,,0.00,798,Wunderground v.1.15,2013-08-25 20:00:00,
2013-08-25 10:10:00,81.9,74.0,30.07,ESE,119,9.0,10.0,77,0.00,,,0.00,814,Wunderground v.1.15,2013-08-25 20:10:00,
2013-08-25 10:15:00,82.0,74.1,30.07,North,360,9.0,13.0,77,0.00,,,0.00,826,Wunderground v.1.15,2013-08-25 20:15:00,
2013-08-25 10:20:00,81.8,74.3,30.06,SE,126,9.0,9.0,78,0.00,,,0.00,842,Wunderground v.1.15,2013-08-25 20:20:00,
2013-08-25 10:25:00,82.1,74.6,30.06,East,88,10.0,10.0,78,0.00,,,0.00,853,Wunderground v.1.15,2013-08-25 20:25:00,
2013-08-25 10:30:00,82.1,73.8,30.06,SE,126,11.0,17.0,76,0.00,,,0.00,863,Wunderground v.1.15,2013-08-25 20:30:00,
2013-08-25 10:35:00,82.6,73.9,30.06,East,86,11.0,17.0,75,0.00,,,0.00,914,Wunderground v.1.15,2013-08-25 20:35:00,
2013-08-25 10:40:00,82.9,74.2,30.06,ENE,69,11.0,12.0,75,0.00,,,0.00,947,Wunderground v.1.15,2013-08-25 20:40:00,
2013-08-25 10:50:00,83.2,74.4,30.05,NE,40,12.0,12.0,75,0.00,,,0.00,1032,Wunderground v.1.15,2013-08-25 20:50:00,
2013-08-25 10:55:00,83.8,73.8,30.05,ENE,57,12.0,12.0,72,0.00,,,0.00,1046,Wunderground v.1.15,2013-08-25 20:55:00,
2013-08-25 11:00:00,84.1,74.1,30.05,East,99,11.0,16.0,72,0.00,,,0.00,1125,Wunderground v.1.15,2013-08-25 21:00:00,
2013-08-25 11:10:00,83.8,73.8,30.04,SE,125,12.0,12.0,72,0.00,,,0.00,954,Wunderground v.1.15,2013-08-25 21:10:00,
2013-08-25 11:20:00,83.1,74.7,30.04,SE,138,13.0,13.0,76,0.00,,,0.00,977,Wunderground v.1.15,2013-08-25 21:20:00,
2013-08-25 11:25:00,82.4,74.8,30.04,SE,128,13.0,17.0,78,0.00,,,0.00,1014,Wunderground v.1.15,2013-08-25 21:25:00,
2013-08-25 11:30:00,81.9,75.1,30.04,ESE,112,13.0,20.0,80,0.00,,,0.00,1023,Wunderground v.1.15,2013-08-25 21:30:00,
2013-08-25 11:35:00,81.1,74.7,30.04,East,92,13.0,20.0,81,0.00,,,0.00,965,Wunderground v.1.15,2013-08-25 21:35:00,
2013-08-25 11:40:00,81.1,75.1,30.04,East,100,14.0,19.0,82,0.00,,,0.00,977,Wunderground v.1.15,2013-08-25 21:40:00,
2013-08-25 11:50:00,81.5,75.5,30.04,East,80,13.0,13.0,82,0.00,,,0.00,1011,Wunderground v.1.15,2013-08-25 21:50:00,
2013-08-25 11:55:00,82.1,76.1,30.03,NE,46,12.0,13.0,82,0.00,,,0.00,997,Wunderground v.1.15,2013-08-25 21:55:00,
2013-08-25 12:00:00,82.3,75.5,30.03,SE,132,11.0,14.0,80,0.00,,,0.00,993,Wunderground v.1.15,2013-08-25 22:00:00,
2013-08-25 12:10:00,82.5,74.9,30.03,ENE,76,14.0,14.0,78,0.00,,,0.00,1027,Wunderground v.1.15,2013-08-25 22:10:00,
2013-08-25 12:15:00,82.2,75.0,30.02,ESE,119,15.0,15.0,79,0.00,,,0.00,1032,Wunderground v.1.15,2013-08-25 22:15:00,
2013-08-25 12:20:00,82.1,75.3,30.02,East,88,15.0,16.0,80,0.00,,,0.00,1037,Wunderground v.1.15,2013-08-25 22:20:00,
2013-08-25 12:25:00,82.0,75.2,30.02,ENE,58,14.0,16.0,80,0.00,,,0.00,1030,Wunderground v.1.15,2013-08-25 22:25:00,
2013-08-25 12:30:00,82.2,75.8,30.02,East,93,13.0,18.0,81,0.00,,,0.00,1027,Wunderground v.1.15,2013-08-25 22:30:00,
2013-08-25 12:35:00,81.5,75.1,30.02,NE,56,13.0,18.0,81,0.00,,,0.00,1011,Wunderground v.1.15,2013-08-25 22:35:00,
2013-08-25 12:40:00,81.5,75.1,30.02,ESE,109,14.0,18.0,81,0.00,,,0.00,1035,Wunderground v.1.15,2013-08-25 22:40:00,
2013-08-25 12:45:00,81.7,75.7,30.02,ESE,122,13.0,18.0,82,0.00,,,0.00,1090,Wunderground v.1.15,2013-08-25 22:45:00,
2013-08-25 12:50:00,81.7,75.3,30.02,SE,136,13.0,13.0,81,0.00,,,0.00,348,Wunderground v.1.15,2013-08-25 22:50:00,
2013-08-25 12:55:00,81.6,75.6,30.02,ESE,107,13.0,15.0,82,0.00,,,0.00,1028,Wunderground v.1.15,2013-08-25 22:55:00,
2013-08-25 13:00:00,81.7,76.0,30.02,ESE,112,13.0,19.0,83,0.00,,,0.00,1016,Wunderground v.1.15,2013-08-25 23:00:00,
2013-08-25 13:10:00,81.5,75.8,30.02,East,89,14.0,14.0,83,0.00,,,0.00,991,Wunderground v.1.15,2013-08-25 23:10:00,
2013-08-25 13:15:00,81.1,75.1,30.02,ENE,57,14.0,14.0,82,0.00,,,0.00,993,Wunderground v.1.15,2013-08-25 23:15:00,
2013-08-25 13:25:00,80.5,74.9,30.02,SSE,151,14.0,15.0,83,0.00,,,0.00,972,Wunderground v.1.15,2013-08-25 23:25:00,
2013-08-25 13:35:00,80.3,74.7,30.02,ENE,75,14.0,16.0,83,0.00,,,0.00,1048,Wunderground v.1.15,2013-08-25 23:35:00,
2013-08-25 13:40:00,80.4,75.1,30.02,ENE,71,13.0,13.0,84,0.00,,,0.00,529,Wunderground v.1.15,2013-08-25 23:40:00,
2013-08-25 13:45:00,80.2,75.6,30.02,ESE,119,11.0,13.0,86,0.00,,,0.00,976,Wunderground v.1.15,2013-08-25 23:45:00,
2013-08-25 13:50:00,80.2,75.6,30.02,SE,132,12.0,12.0,86,0.00,,,0.00,517,Wunderground v.1.15,2013-08-25 23:50:00,
2013-08-25 13:55:00,79.8,75.2,30.02,ESE,115,12.0,12.0,86,0.00,,,0.00,355,Wunderground v.1.15,2013-08-25 23:55:00,
2013-08-25 14:00:00,79.3,75.1,30.02,ESE,119,12.0,12.0,87,0.00,,,0.00,438,Wunderground v.1.15,2013-08-26 00:00:00,
2013-08-25 14:10:00,80.0,75.4,30.02,SE,133,11.0,11.0,86,0.00,,,0.00,1063,Wunderground v.1.15,2013-08-26 00:10:00,
2013-08-25 14:15:00,80.2,75.3,30.02,ESE,116,12.0,12.0,85,0.00,,,0.00,991,Wunderground v.1.15,2013-08-26 00:15:00,
2013-08-25 14:20:00,80.3,75.4,30.02,SE,135,11.0,15.0,85,0.00,,,0.00,900,Wunderground v.1.15,2013-08-26 00:20:00,
2013-08-25 14:25:00,80.1,74.8,30.02,ENE,67,11.0,15.0,84,0.00,,,0.00,262,Wunderground v.1.15,2013-08-26 00:25:00,
2013-08-25 14:35:00,80.4,75.5,30.02,East,80,10.0,12.0,85,0.00,,,0.00,865,Wunderground v.1.15,2013-08-26 00:35:00,
2013-08-25 14:40:00,80.1,74.8,30.02,SE,130,10.0,15.0,84,0.00,,,0.00,874,Wunderground v.1.15,2013-08-26 00:40:00,
2013-08-25 14:45:00,80.2,74.9,30.01,SE,135,10.0,15.0,84,0.00,,,0.00,879,Wunderground v.1.15,2013-08-26 00:45:00,
2013-08-25 14:50:00,80.0,74.7,30.01,ESE,107,11.0,11.0,84,0.00,,,0.00,830,Wunderground v.1.15,2013-08-26 00:50:00,
2013-08-25 14:55:00,79.9,74.3,30.01,ESE,120,12.0,12.0,83,0.00,,,0.00,793,Wunderground v.1.15,2013-08-26 00:55:00,
2013-08-25 15:00:00,79.6,74.0,30.01,SE,124,13.0,13.0,83,0.00,,,0.00,786,Wunderground v.1.15,2013-08-26 01:00:00,
2013-08-25 15:10:00,79.5,74.6,30.01,East,80,11.0,15.0,85,0.00,,,0.00,647,Wunderground v.1.15,2013-08-26 01:10:00,
2013-08-25 15:15:00,79.5,74.2,30.01,ESE,120,10.0,15.0,84,0.00,,,0.00,218,Wunderground v.1.15,2013-08-26 01:15:00,
2013-08-25 15:20:00,79.5,73.5,30.00,ESE,109,11.0,14.0,82,0.00,,,0.00,178,Wunderground v.1.15,2013-08-26 01:20:00,
2013-08-25 15:25:00,79.5,73.5,30.01,East,86,11.0,14.0,82,0.00,,,0.00,174,Wunderground v.1.15,2013-08-26 01:25:00,
2013-08-25 15:35:00,79.0,73.7,30.01,East,98,10.0,20.0,84,0.00,,,0.00,218,Wunderground v.1.15,2013-08-26 01:35:00,
2013-08-25 15:40:00,79.0,73.4,30.01,ENE,64,9.0,12.0,83,0.00,,,0.00,636,Wunderground v.1.15,2013-08-26 01:40:00,
2013-08-25 15:45:00,79.2,73.2,30.01,ESE,102,10.0,12.0,82,0.00,,,0.00,271,Wunderground v.1.15,2013-08-26 01:45:00,
2013-08-25 15:50:00,78.6,73.0,30.02,SE,126,11.0,11.0,83,0.00,,,0.00,190,Wunderground v.1.15,2013-08-26 01:50:00,
2013-08-25 15:55:00,78.1,73.2,30.02,NE,44,10.0,11.0,85,0.00,,,0.00,132,Wunderground v.1.15,2013-08-26 01:55:00,
2013-08-25 16:00:00,77.6,72.7,30.01,ESE,108,10.0,12.0,85,0.00,,,0.00,155,Wunderground v.1.15,2013-08-26 02:00:00,
2013-08-25 16:10:00,77.4,72.9,30.02,ESE,112,8.0,12.0,86,0.00,,,0.00,167,Wunderground v.1.15,2013-08-26 02:10:00,
2013-08-25 16:15:00,77.4,73.2,30.02,East,88,9.0,12.0,87,0.00,,,0.00,199,Wunderground v.1.15,2013-08-26 02:15:00,
2013-08-25 16:20:00,77.4,72.9,30.01,ENE,68,8.0,13.0,86,0.00,,,0.00,134,Wunderground v.1.15,2013-08-26 02:20:00,
2013-08-25 16:25:00,77.3,72.8,30.02,ENE,69,8.0,13.0,86,0.00,,,0.00,135,Wunderground v.1.15,2013-08-26 02:25:00,
2013-08-25 16:35:00,77.1,72.6,30.02,ENE,62,8.0,11.0,86,0.00,,,0.00,107,Wunderground v.1.15,2013-08-26 02:35:00,
2013-08-25 16:40:00,77.2,72.7,30.02,ENE,62,7.0,7.0,86,0.00,,,0.00,93,Wunderground v.1.15,2013-08-26 02:40:00,
2013-08-25 16:45:00,77.2,73.0,30.02,East,96,5.0,7.0,87,0.00,,,0.00,100,Wunderground v.1.15,2013-08-26 02:45:00,
2013-08-25 16:50:00,77.1,72.9,30.02,NE,46,5.0,5.0,87,0.00,,,0.00,90,Wunderground v.1.15,2013-08-26 02:50:00,
2013-08-25 16:55:00,77.0,73.2,30.02,East,81,5.0,13.0,88,0.00,,,0.00,74,Wunderground v.1.15,2013-08-26 02:55:00,
2013-08-25 17:00:00,76.8,73.0,30.02,SE,134,5.0,13.0,88,0.00,,,0.00,86,Wunderground v.1.15,2013-08-26 03:00:00,
2013-08-25 17:10:00,76.7,72.9,30.03,ENE,65,7.0,7.0,88,0.00,,,0.00,60,Wunderground v.1.15,2013-08-26 03:10:00,
2013-08-25 17:15:00,76.6,72.8,30.02,SE,132,6.0,7.0,88,0.00,,,0.00,53,Wunderground v.1.15,2013-08-26 03:15:00,
2013-08-25 17:20:00,76.5,72.7,30.03,NE,51,4.0,4.0,88,0.00,,,0.00,42,Wunderground v.1.15,2013-08-26 03:20:00,
2013-08-25 17:25:00,76.4,72.6,30.03,NE,37,3.0,4.0,88,0.00,,,0.00,46,Wunderground v.1.15,2013-08-26 03:25:00,
2013-08-25 17:35:00,76.2,72.7,30.03,NNE,28,3.0,8.0,89,0.00,,,0.00,33,Wunderground v.1.15,2013-08-26 03:35:00,
2013-08-25 17:40:00,76.1,72.6,30.03,ENE,57,4.0,5.0,89,0.00,,,0.00,25,Wunderground v.1.15,2013-08-26 03:40:00,
2013-08-25 17:45:00,76.0,72.5,30.03,NNW,336,4.0,5.0,89,0.00,,,0.00,25,Wunderground v.1.15,2013-08-26 03:45:00,
2013-08-25 17:50:00,75.9,72.4,30.04,North,10,3.0,3.0,89,0.00,,,0.00,37,Wunderground v.1.15,2013-08-26 03:50:00,
2013-08-25 17:55:00,76.0,72.9,30.04,WNW,300,2.0,7.0,90,0.00,,,0.00,35,Wunderground v.1.15,2013-08-26 03:55:00,
2013-08-25 18:00:00,76.0,72.9,30.04,NNW,346,4.0,4.0,90,0.00,,,0.00,21,Wunderground v.1.15,2013-08-26 04:00:00,
2013-08-25 18:05:00,76.1,73.0,30.04,NNW,346,3.0,4.0,90,0.00,,,0.00,16,Wunderground v.1.15,2013-08-26 04:05:00,
2013-08-25 18:10:00,76.0,72.9,30.04,East,94,1.0,2.0,90,0.00,,,0.00,14,Wunderground v.1.15,2013-08-26 04:10:00,
2013-08-25 18:15:00,75.9,72.8,30.04,NW,319,1.0,2.0,90,0.00,,,0.00,14,Wunderground v.1.15,2013-08-26 04:15:00,
2013-08-25 18:25:00,75.9,72.8,30.04,NW,307,1.0,1.0,90,0.00,,,0.00,11,Wunderground v.1.15,2013-08-26 04:25:00,
2013-08-25 18:30:00,75.8,72.7,30.04,NW,306,1.0,7.0,90,0.00,,,0.00,7,Wunderground v.1.15,2013-08-26 04:30:00,
2013-08-25 18:40:00,75.7,72.6,30.04,WSW,256,3.0,3.0,90,0.00,,,0.00,0,Wunderground v.1.15,2013-08-26 04:40:00,
2013-08-25 18:45:00,75.6,72.5,30.04,North,349,2.0,5.0,90,0.00,,,0.00,0,Wunderground v.1.15,2013-08-26 04:45:00,
2013-08-25 18:50:00,75.6,72.5,30.05,NW,313,3.0,3.0,90,0.00,,,0.00,0,Wunderground v.1.15,2013-08-26 04:50:00,
2013-08-25 18:55:00,75.6,72.5,30.05,NW,313,1.0,3.0,90,0.00,,,0.00,0,Wunderground v.1.15,2013-08-26 04:55:00,
2013-08-25 19:00:00,75.4,72.3,30.05,NW,316,1.0,3.0,90,0.00,,,0.00,0,Wunderground v.1.15,2013-08-26 05:00:00,
2013-08-25 19:10:00,75.2,71.7,30.06,NNW,333,5.0,5.0,89,0.00,,,0.00,0,Wunderground v.1.15,2013-08-26 05:10:00,
2013-08-25 19:15:00,75.2,71.7,30.05,NNW,342,3.0,5.0,89,0.00,,,0.00,0,Wunderground v.1.15,2013-08-26 05:15:00,
2013-08-25 19:20:00,75.2,71.4,30.06,NNW,342,1.0,1.0,88,0.00,,,0.00,0,Wunderground v.1.15,2013-08-26 05:20:00,
2013-08-25 19:25:00,75.1,71.6,30.06,NNW,342,0.0,1.0,89,0.00,,,0.00,0,Wunderground v.1.15,2013-08-26 05:25:00,
2013-08-25 19:35:00,74.8,71.3,30.07,West,264,0.0,4.0,89,0.00,,,0.00,0,Wunderground v.1.15,2013-08-26 05:35:00,
2013-08-25 19:40:00,74.4,71.3,30.07,West,271,2.0,2.0,90,0.00,,,0.00,0,Wunderground v.1.15,2013-08-26 05:40:00,
2013-08-25 19:45:00,74.2,71.1,30.07,West,271,3.0,3.0,90,0.00,,,0.00,0,Wunderground v.1.15,2013-08-26 05:45:00,
2013-08-25 19:50:00,74.1,71.0,30.07,West,271,2.0,2.0,90,0.00,,,0.00,0,Wunderground v.1.15,2013-08-26 05:50:00,
2013-08-25 19:55:00,74.0,71.2,30.07,West,271,2.0,5.0,91,0.00,,,0.00,0,Wunderground v.1.15,2013-08-26 05:55:00,
2013-08-25 20:00:00,74.2,71.4,30.07,SW,222,3.0,3.0,91,0.00,,,0.00,0,Wunderground v.1.15,2013-08-26 06:00:00,
2013-08-25 20:10:00,74.3,71.2,30.07,West,261,2.0,2.0,90,0.00,,,0.00,0,Wunderground v.1.15,2013-08-26 06:10:00,
2013-08-25 20:15:00,74.1,71.0,30.08,West,261,1.0,2.0,90,0.00,,,0.00,0,Wunderground v.1.15,2013-08-26 06:15:00,
2013-08-25 20:20:00,73.7,70.6,30.08,West,261,0.0,0.0,90,0.00,,,0.00,0,Wunderground v.1.15,2013-08-26 06:20:00,
2013-08-25 20:25:00,73.4,70.6,30.08,West,261,0.0,0.0,91,0.00,,,0.00,0,Wunderground v.1.15,2013-08-26 06:25:00,
2013-08-25 20:30:00,73.0,70.5,30.08,West,261,0.0,0.0,92,0.00,,,0.00,0,Wunderground v.1.15,2013-08-26 06:30:00,
2013-08-25 20:40:00,72.3,70.2,30.08,West,261,0.0,0.0,93,0.00,,,0.00,0,Wunderground v.1.15,2013-08-26 06:40:00,
2013-08-25 20:45:00,72.0,69.9,30.08,West,261,1.0,4.0,93,0.00,,,0.00,0,Wunderground v.1.15,2013-08-26 06:45:00,
2013-08-25 20:50:00,71.8,69.7,30.09,West,261,3.0,3.0,93,0.00,,,0.00,0,Wunderground v.1.15,2013-08-26 06:50:00,
2013-08-25 20:55:00,71.6,69.8,30.09,West,261,2.0,3.0,94,0.00,,,0.00,0,Wunderground v.1.15,2013-08-26 06:55:00,
2013-08-25 21:00:00,71.4,69.6,30.08,West,261,1.0,1.0,94,0.00,,,0.00,0,Wunderground v.1.15,2013-08-26 07:00:00,
2013-08-25 21:10:00,71.1,69.3,30.09,West,261,0.0,0.0,94,0.00,,,0.00,0,Wunderground v.1.15,2013-08-26 07:10:00,
2013-08-25 21:15:00,70.8,69.0,30.09,West,261,0.0,0.0,94,0.00,,,0.00,0,Wunderground v.1.15,2013-08-26 07:15:00,
2013-08-25 21:20:00,70.5,69.0,30.09,West,261,0.0,0.0,95,0.00,,,0.00,0,Wunderground v.1.15,2013-08-26 07:20:00,
2013-08-25 21:25:00,70.3,68.8,30.10,West,261,0.0,0.0,95,0.00,,,0.00,0,Wunderground v.1.15,2013-08-26 07:25:00,
2013-08-25 21:30:00,70.2,68.7,30.10,West,261,0.0,2.0,95,0.00,,,0.00,0,Wunderground v.1.15,2013-08-26 07:30:00,
2013-08-25 21:35:00,70.2,68.7,30.10,West,261,2.0,3.0,95,0.00,,,0.00,0,Wunderground v.1.15,2013-08-26 07:35:00,
2013-08-25 21:40:00,70.2,68.7,30.10,West,261,3.0,3.0,95,0.00,,,0.00,0,Wunderground v.1.15,2013-08-26 07:40:00,
2013-08-25 21:50:00,69.9,68.4,30.11,West,261,0.0,0.0,95,0.00,,,0.00,0,Wunderground v.1.15,2013-08-26 07:50:00,
2013-08-25 21:55:00,69.6,68.1,30.11,West,261,0.0,0.0,95,0.00,,,0.00,0,Wunderground v.1.15,2013-08-26 07:55:00,
2013-08-25 22:00:00,69.5,68.3,30.11,West,264,1.0,3.0,96,0.00,,,0.00,0,Wunderground v.1.15,2013-08-26 08:00:00,
2013-08-25 22:10:00,69.4,67.9,30.12,WNW,300,2.0,6.0,95,0.00,,,0.00,0,Wunderground v.1.15,2013-08-26 08:10:00,
2013-08-25 22:15:00,69.5,68.3,30.11,WNW,300,2.0,6.0,96,0.00,,,0.00,0,Wunderground v.1.15,2013-08-26 08:15:00,
2013-08-25 22:20:00,69.7,68.5,30.12,WNW,300,3.0,3.0,96,0.00,,,0.00,0,Wunderground v.1.15,2013-08-26 08:20:00,
2013-08-25 22:25:00,69.9,68.7,30.11,WNW,300,3.0,3.0,96,0.00,,,0.00,0,Wunderground v.1.15,2013-08-26 08:25:00,
2013-08-25 22:30:00,70.0,68.5,30.12,WNW,300,1.0,1.0,95,0.00,,,0.00,0,Wunderground v.1.15,2013-08-26 08:30:00,
2013-08-25 22:35:00,70.1,68.9,30.12,WNW,300,0.0,1.0,96,0.00,,,0.00,0,Wunderground v.1.15,2013-08-26 08:35:00,
2013-08-25 22:40:00,70.0,68.5,30.12,WNW,300,0.0,0.0,95,0.00,,,0.00,0,Wunderground v.1.15,2013-08-26 08:40:00,
2013-08-25 22:50:00,69.9,68.7,30.11,WNW,300,1.0,1.0,96,0.00,,,0.00,0,Wunderground v.1.15,2013-08-26 08:50:00,
2013-08-25 22:55:00,70.1,68.9,30.11,WNW,300,1.0,1.0,96,0.00,,,0.00,0,Wunderground v.1.15,2013-08-26 08:55:00,
2013-08-25 23:00:00,70.1,68.9,30.12,WNW,300,2.0,2.0,96,0.00,,,0.00,0,Wunderground v.1.15,2013-08-26 09:00:00,
2013-08-25 23:10:00,70.1,68.9,30.12,WNW,300,0.0,0.0,96,0.00,,,0.00,0,Wunderground v.1.15,2013-08-26 09:10:00,
2013-08-25 23:15:00,70.3,69.1,30.12,WNW,300,0.0,0.0,96,0.00,,,0.00,0,Wunderground v.1.15,2013-08-26 09:15:00,
2013-08-25 23:20:00,70.4,69.2,30.12,WNW,300,1.0,2.0,96,0.00,,,0.00,0,Wunderground v.1.15,2013-08-26 09:20:00,
2013-08-25 23:25:00,70.3,69.1,30.12,WNW,301,2.0,2.0,96,0.00,,,0.00,0,Wunderground v.1.15,2013-08-26 09:25:00,
2013-08-25 23:30:00,70.2,69.0,30.12,WNW,299,3.0,3.0,96,0.00,,,0.00,0,Wunderground v.1.15,2013-08-26 09:30:00,
2013-08-25 23:35:00,70.5,69.3,30.12,WNW,297,4.0,4.0,96,0.00,,,0.00,0,Wunderground v.1.15,2013-08-26 09:35:00,
2013-08-25 23:45:00,70.3,68.8,30.12,WNW,297,2.0,3.0,95,0.00,,,0.00,0,Wunderground v.1.15,2013-08-26 09:45:00,
2013-08-25 23:55:00,70.2,68.7,30.11,WNW,297,4.0,4.0,95,0.00,,,0.00,0,Wunderground v.1.15,2013-08-26 09:55:00,